Year,Month,Day,Hour,Minute,Value (Times are PST for temperature in C)
2007,08,15,00,00,14.60
2007,08,15,00,01,14.60
2007,08,15,00,02,14.60
2007,08,15,00,03,14.60
2007,08,15,00,04,14.60
2007,08,15,00,05,14.60
2007,08,15,00,06,14.60
2007,08,15,00,07,14.60
2007,08,15,00,08,14.60
2007,08,15,00,09,14.60
2007,08,15,00,10,14.60
2007,08,15,00,11,14.60
2007,08,15,00,12,14.60
2007,08,15,00,13,14.60
2007,08,15,00,14,14.50
2007,08,15,00,15,14.50
2007,08,15,00,16,14.50
2007,08,15,00,17,14.50
2007,08,15,00,18,14.40
2007,08,15,00,19,14.40
2007,08,15,00,20,14.40
2007,08,15,00,21,14.40
2007,08,15,00,22,14.30
2007,08,15,00,23,14.30
2007,08,15,00,24,14.30
2007,08,15,00,25,14.30
2007,08,15,00,26,14.30
2007,08,15,00,27,14.30
2007,08,15,00,28,14.30
2007,08,15,00,29,14.30
2007,08,15,00,30,14.30
2007,08,15,00,31,14.30
2007,08,15,00,32,14.30
2007,08,15,00,33,14.20
2007,08,15,00,34,14.20
2007,08,15,00,35,14.20
2007,08,15,00,36,14.20
2007,08,15,00,37,14.20
2007,08,15,00,38,14.10
2007,08,15,00,39,14.10
2007,08,15,00,40,14.10
2007,08,15,00,41,14.10
2007,08,15,00,42,14.10
2007,08,15,00,43,14.10
2007,08,15,00,44,14.10
2007,08,15,00,45,14.10
2007,08,15,00,46,14.10
2007,08,15,00,47,14.10
2007,08,15,00,48,14.10
2007,08,15,00,49,14.10
2007,08,15,00,50,14.10
2007,08,15,00,51,14.10
2007,08,15,00,52,14.10
2007,08,15,00,53,14.10
2007,08,15,00,54,14.10
2007,08,15,00,55,14.10
2007,08,15,00,56,14.10
2007,08,15,00,57,14.00
2007,08,15,00,58,14.00
2007,08,15,00,59,14.00
2007,08,15,01,00,14.00
2007,08,15,01,01,14.00
2007,08,15,01,02,14.00
2007,08,15,01,03,14.00
2007,08,15,01,04,14.00
2007,08,15,01,05,14.00
2007,08,15,01,06,14.00
2007,08,15,01,07,13.90
2007,08,15,01,08,13.90
2007,08,15,01,09,13.80
2007,08,15,01,10,13.80
2007,08,15,01,11,13.80
2007,08,15,01,12,13.70
2007,08,15,01,13,13.70
2007,08,15,01,14,13.70
2007,08,15,01,15,13.70
2007,08,15,01,16,13.70
2007,08,15,01,17,13.70
2007,08,15,01,18,13.70
2007,08,15,01,19,13.70
2007,08,15,01,20,13.70
2007,08,15,01,21,13.70
2007,08,15,01,22,13.70
2007,08,15,01,23,13.80
2007,08,15,01,24,13.80
2007,08,15,01,25,13.80
2007,08,15,01,26,13.80
2007,08,15,01,27,13.80
2007,08,15,01,28,13.80
2007,08,15,01,29,13.80
2007,08,15,01,30,13.80
2007,08,15,01,31,13.80
2007,08,15,01,32,13.80
2007,08,15,01,33,13.70
2007,08,15,01,34,13.70
2007,08,15,01,35,13.70
2007,08,15,01,36,13.70
2007,08,15,01,37,13.70
2007,08,15,01,38,13.70
2007,08,15,01,39,13.70
2007,08,15,01,40,13.70
2007,08,15,01,41,13.70
2007,08,15,01,42,13.60
2007,08,15,01,43,13.60
2007,08,15,01,44,13.60
2007,08,15,01,45,13.50
2007,08,15,01,46,13.40
2007,08,15,01,47,13.40
2007,08,15,01,48,13.30
2007,08,15,01,49,13.30
2007,08,15,01,50,13.20
2007,08,15,01,51,13.20
2007,08,15,01,52,13.20
2007,08,15,01,53,13.10
2007,08,15,01,54,13.10
2007,08,15,01,55,13.10
2007,08,15,01,56,13.10
2007,08,15,01,57,13.10
2007,08,15,01,58,13.10
2007,08,15,01,59,13.10
2007,08,15,02,00,13.00
2007,08,15,02,01,13.00
2007,08,15,02,02,13.00
2007,08,15,02,03,13.00
2007,08,15,02,04,12.90
2007,08,15,02,05,12.90
2007,08,15,02,06,12.90
2007,08,15,02,07,12.90
2007,08,15,02,08,12.90
2007,08,15,02,09,12.80
2007,08,15,02,10,12.80
2007,08,15,02,11,12.80
2007,08,15,02,12,12.90
2007,08,15,02,13,12.90
2007,08,15,02,14,12.90
2007,08,15,02,15,12.90
2007,08,15,02,16,12.90
2007,08,15,02,17,12.90
2007,08,15,02,18,12.80
2007,08,15,02,19,12.80
2007,08,15,02,20,12.80
2007,08,15,02,21,12.80
2007,08,15,02,22,12.80
2007,08,15,02,23,12.90
2007,08,15,02,24,12.90
2007,08,15,02,25,12.90
2007,08,15,02,26,12.90
2007,08,15,02,27,12.90
2007,08,15,02,28,12.80
2007,08,15,02,29,12.80
2007,08,15,02,30,12.80
2007,08,15,02,31,12.80
2007,08,15,02,32,12.80
2007,08,15,02,33,12.80
2007,08,15,02,34,12.80
2007,08,15,02,35,12.80
2007,08,15,02,36,12.80
2007,08,15,02,37,12.80
2007,08,15,02,38,12.80
2007,08,15,02,39,12.80
2007,08,15,02,40,12.80
2007,08,15,02,41,12.90
2007,08,15,02,42,12.80
2007,08,15,02,43,12.80
2007,08,15,02,44,12.80
2007,08,15,02,45,12.80
2007,08,15,02,46,12.80
2007,08,15,02,47,12.70
2007,08,15,02,48,12.70
2007,08,15,02,49,12.70
2007,08,15,02,50,12.70
2007,08,15,02,51,12.70
2007,08,15,02,52,12.70
2007,08,15,02,53,12.60
2007,08,15,02,54,12.60
2007,08,15,02,55,12.60
2007,08,15,02,56,12.60
2007,08,15,02,57,12.60
2007,08,15,02,58,12.60
2007,08,15,02,59,12.60
2007,08,15,03,00,12.60
2007,08,15,03,01,12.60
2007,08,15,03,02,12.70
2007,08,15,03,03,12.70
2007,08,15,03,04,12.80
2007,08,15,03,05,12.80
2007,08,15,03,06,12.80
2007,08,15,03,07,12.80
2007,08,15,03,08,12.90
2007,08,15,03,09,12.90
2007,08,15,03,10,12.90
2007,08,15,03,11,12.90
2007,08,15,03,12,12.90
2007,08,15,03,13,12.90
2007,08,15,03,14,12.90
2007,08,15,03,15,12.90
2007,08,15,03,16,12.90
2007,08,15,03,17,12.90
2007,08,15,03,18,12.90
2007,08,15,03,19,12.90
2007,08,15,03,20,12.90
2007,08,15,03,21,12.90
2007,08,15,03,22,12.90
2007,08,15,03,23,12.90
2007,08,15,03,24,12.90
2007,08,15,03,25,12.90
2007,08,15,03,26,13.00
2007,08,15,03,27,13.00
2007,08,15,03,28,13.00
2007,08,15,03,29,13.00
2007,08,15,03,30,13.10
2007,08,15,03,31,13.10
2007,08,15,03,32,13.10
2007,08,15,03,33,13.00
2007,08,15,03,34,13.00
2007,08,15,03,35,13.00
2007,08,15,03,36,13.00
2007,08,15,03,37,12.90
2007,08,15,03,38,12.90
2007,08,15,03,39,12.90
2007,08,15,03,40,12.90
2007,08,15,03,41,12.90
2007,08,15,03,42,12.90
2007,08,15,03,43,12.90
2007,08,15,03,44,12.80
2007,08,15,03,45,12.80
2007,08,15,03,46,12.80
2007,08,15,03,47,12.80
2007,08,15,03,48,12.80
2007,08,15,03,49,12.80
2007,08,15,03,50,12.70
2007,08,15,03,51,12.70
2007,08,15,03,52,12.70
2007,08,15,03,53,12.70
2007,08,15,03,54,12.70
2007,08,15,03,55,12.70
2007,08,15,03,56,12.70
2007,08,15,03,57,12.60
2007,08,15,03,58,12.60
2007,08,15,03,59,12.60
2007,08,15,04,00,12.60
2007,08,15,04,01,12.60
2007,08,15,04,02,12.60
2007,08,15,04,03,12.60
2007,08,15,04,04,12.60
2007,08,15,04,05,12.60
2007,08,15,04,06,12.60
2007,08,15,04,07,12.50
2007,08,15,04,08,12.50
2007,08,15,04,09,12.50
2007,08,15,04,10,12.60
2007,08,15,04,11,12.60
2007,08,15,04,12,12.60
2007,08,15,04,13,12.60
2007,08,15,04,14,12.60
2007,08,15,04,15,12.60
2007,08,15,04,16,12.60
2007,08,15,04,17,12.60
2007,08,15,04,18,12.60
2007,08,15,04,19,12.60
2007,08,15,04,20,12.60
2007,08,15,04,21,12.60
2007,08,15,04,22,12.60
2007,08,15,04,23,12.60
2007,08,15,04,24,12.60
2007,08,15,04,25,12.60
2007,08,15,04,26,12.60
2007,08,15,04,27,12.50
2007,08,15,04,28,12.50
2007,08,15,04,29,12.50
2007,08,15,04,30,12.50
2007,08,15,04,31,12.50
2007,08,15,04,32,12.40
2007,08,15,04,33,12.40
2007,08,15,04,34,12.40
2007,08,15,04,35,12.40
2007,08,15,04,36,12.40
2007,08,15,04,37,12.40
2007,08,15,04,38,12.30
2007,08,15,04,39,12.30
2007,08,15,04,40,12.30
2007,08,15,04,41,12.30
2007,08,15,04,42,12.30
2007,08,15,04,43,12.30
2007,08,15,04,44,12.30
2007,08,15,04,45,12.30
2007,08,15,04,46,12.30
2007,08,15,04,47,12.20
2007,08,15,04,48,12.20
2007,08,15,04,49,12.20
2007,08,15,04,50,12.20
2007,08,15,04,51,12.20
2007,08,15,04,52,12.20
2007,08,15,04,53,12.20
2007,08,15,04,54,12.20
2007,08,15,04,55,12.20
2007,08,15,04,56,12.20
2007,08,15,04,57,12.20
2007,08,15,04,58,12.20
2007,08,15,04,59,12.20
2007,08,15,05,00,12.10
2007,08,15,05,01,12.10
2007,08,15,05,02,12.10
2007,08,15,05,03,12.10
2007,08,15,05,04,12.10
2007,08,15,05,05,12.10
2007,08,15,05,06,12.10
2007,08,15,05,07,12.10
2007,08,15,05,08,12.10
2007,08,15,05,09,12.20
2007,08,15,05,10,12.20
2007,08,15,05,11,12.20
2007,08,15,05,12,12.20
2007,08,15,05,13,12.20
2007,08,15,05,14,12.20
2007,08,15,05,15,12.20
2007,08,15,05,16,12.20
2007,08,15,05,17,12.20
2007,08,15,05,18,12.20
2007,08,15,05,19,12.20
2007,08,15,05,20,12.20
2007,08,15,05,21,12.30
2007,08,15,05,22,12.30
2007,08,15,05,23,12.30
2007,08,15,05,24,12.30
2007,08,15,05,25,12.30
2007,08,15,05,26,12.30
2007,08,15,05,27,12.30
2007,08,15,05,28,12.30
2007,08,15,05,29,12.30
2007,08,15,05,30,12.30
2007,08,15,05,31,12.30
2007,08,15,05,32,12.30
2007,08,15,05,33,12.30
2007,08,15,05,34,12.30
2007,08,15,05,35,12.30
2007,08,15,05,36,12.20
2007,08,15,05,37,12.20
2007,08,15,05,38,12.20
2007,08,15,05,39,12.20
2007,08,15,05,40,12.20
2007,08,15,05,41,12.10
2007,08,15,05,42,12.10
2007,08,15,05,43,12.10
2007,08,15,05,44,12.00
2007,08,15,05,45,12.00
2007,08,15,05,46,11.90
2007,08,15,05,47,11.90
2007,08,15,05,48,11.90
2007,08,15,05,49,11.90
2007,08,15,05,50,11.80
2007,08,15,05,51,11.80
2007,08,15,05,52,11.80
2007,08,15,05,53,11.80
2007,08,15,05,54,11.80
2007,08,15,05,55,11.80
2007,08,15,05,56,11.90
2007,08,15,05,57,11.90
2007,08,15,05,58,11.90
2007,08,15,05,59,11.90
2007,08,15,06,00,11.90
2007,08,15,06,01,11.90
2007,08,15,06,02,11.90
2007,08,15,06,03,11.90
2007,08,15,06,04,11.90
2007,08,15,06,05,11.90
2007,08,15,06,06,11.90
2007,08,15,06,07,11.90
2007,08,15,06,08,11.90
2007,08,15,06,09,11.90
2007,08,15,06,10,11.90
2007,08,15,06,11,11.90
2007,08,15,06,12,11.90
2007,08,15,06,13,11.90
2007,08,15,06,14,11.90
2007,08,15,06,15,11.90
2007,08,15,06,16,11.90
2007,08,15,06,17,11.90
2007,08,15,06,18,11.90
2007,08,15,06,19,11.90
2007,08,15,06,20,11.90
2007,08,15,06,21,11.90
2007,08,15,06,22,11.90
2007,08,15,06,23,11.80
2007,08,15,06,24,11.80
2007,08,15,06,25,11.80
2007,08,15,06,26,11.80
2007,08,15,06,27,11.80
2007,08,15,06,28,11.80
2007,08,15,06,29,11.80
2007,08,15,06,30,11.80
2007,08,15,06,31,11.80
2007,08,15,06,32,11.80
2007,08,15,06,33,11.80
2007,08,15,06,34,11.70
2007,08,15,06,35,11.70
2007,08,15,06,36,11.70
2007,08,15,06,37,11.70
2007,08,15,06,38,11.70
2007,08,15,06,39,11.70
2007,08,15,06,40,11.70
2007,08,15,06,41,11.70
2007,08,15,06,42,11.70
2007,08,15,06,43,11.70
2007,08,15,06,44,11.70
2007,08,15,06,45,11.70
2007,08,15,06,46,11.70
2007,08,15,06,47,11.70
2007,08,15,06,48,11.80
2007,08,15,06,49,11.80
2007,08,15,06,50,11.80
2007,08,15,06,51,11.80
2007,08,15,06,52,11.90
2007,08,15,06,53,11.90
2007,08,15,06,54,11.90
2007,08,15,06,55,11.90
2007,08,15,06,56,11.90
2007,08,15,06,57,11.90
2007,08,15,06,58,11.90
2007,08,15,06,59,11.80
2007,08,15,07,00,11.80
2007,08,15,07,01,11.80
2007,08,15,07,02,11.80
2007,08,15,07,03,11.90
2007,08,15,07,04,11.90
2007,08,15,07,05,11.90
2007,08,15,07,06,12.00
2007,08,15,07,07,12.00
2007,08,15,07,08,12.10
2007,08,15,07,09,12.10
2007,08,15,07,10,12.10
2007,08,15,07,11,12.20
2007,08,15,07,12,12.20
2007,08,15,07,13,12.20
2007,08,15,07,14,12.20
2007,08,15,07,15,12.20
2007,08,15,07,16,12.20
2007,08,15,07,17,12.20
2007,08,15,07,18,12.20
2007,08,15,07,19,12.20
2007,08,15,07,20,12.20
2007,08,15,07,21,12.20
2007,08,15,07,22,12.20
2007,08,15,07,23,12.30
2007,08,15,07,24,12.30
2007,08,15,07,25,12.30
2007,08,15,07,26,12.30
2007,08,15,07,27,12.30
2007,08,15,07,28,12.30
2007,08,15,07,29,12.30
2007,08,15,07,30,12.30
2007,08,15,07,31,12.30
2007,08,15,07,32,12.40
2007,08,15,07,33,12.40
2007,08,15,07,34,12.40
2007,08,15,07,35,12.50
2007,08,15,07,36,12.50
2007,08,15,07,37,12.60
2007,08,15,07,38,12.60
2007,08,15,07,39,12.60
2007,08,15,07,40,12.70
2007,08,15,07,41,12.70
2007,08,15,07,42,12.80
2007,08,15,07,43,12.80
2007,08,15,07,44,12.80
2007,08,15,07,45,12.90
2007,08,15,07,46,12.90
2007,08,15,07,47,13.00
2007,08,15,07,48,13.00
2007,08,15,07,49,13.10
2007,08,15,07,50,13.10
2007,08,15,07,51,13.20
2007,08,15,07,52,13.20
2007,08,15,07,53,13.20
2007,08,15,07,54,13.30
2007,08,15,07,55,13.40
2007,08,15,07,56,13.50
2007,08,15,07,57,13.50
2007,08,15,07,58,13.60
2007,08,15,07,59,13.70
2007,08,15,08,00,13.80
2007,08,15,08,01,13.80
2007,08,15,08,02,13.90
2007,08,15,08,03,13.90
2007,08,15,08,04,13.90
2007,08,15,08,05,14.00
2007,08,15,08,06,14.00
2007,08,15,08,07,14.10
2007,08,15,08,08,14.10
2007,08,15,08,09,14.20
2007,08,15,08,10,14.20
2007,08,15,08,11,14.30
2007,08,15,08,12,14.30
2007,08,15,08,13,14.40
2007,08,15,08,14,14.50
2007,08,15,08,15,14.60
2007,08,15,08,16,14.70
2007,08,15,08,17,14.80
2007,08,15,08,18,15.00
2007,08,15,08,19,15.00
2007,08,15,08,20,15.00
2007,08,15,08,21,15.10
2007,08,15,08,22,15.30
2007,08,15,08,23,15.40
2007,08,15,08,24,15.40
2007,08,15,08,25,15.50
2007,08,15,08,26,15.60
2007,08,15,08,27,15.70
2007,08,15,08,28,15.70
2007,08,15,08,29,15.80
2007,08,15,08,30,15.80
2007,08,15,08,31,15.80
2007,08,15,08,32,15.80
2007,08,15,08,33,15.90
2007,08,15,08,34,15.90
2007,08,15,08,35,15.90
2007,08,15,08,36,16.00
2007,08,15,08,37,16.00
2007,08,15,08,38,16.10
2007,08,15,08,39,16.10
2007,08,15,08,40,16.20
2007,08,15,08,41,16.20
2007,08,15,08,42,16.30
2007,08,15,08,43,16.40
2007,08,15,08,44,16.50
2007,08,15,08,45,16.50
2007,08,15,08,46,16.60
2007,08,15,08,47,16.70
2007,08,15,08,48,16.70
2007,08,15,08,49,16.80
2007,08,15,08,50,16.80
2007,08,15,08,51,16.90
2007,08,15,08,52,16.90
2007,08,15,08,53,16.90
2007,08,15,08,54,17.00
2007,08,15,08,55,17.00
2007,08,15,08,56,17.10
2007,08,15,08,57,17.10
2007,08,15,08,58,17.10
2007,08,15,08,59,17.10
2007,08,15,09,00,17.10
2007,08,15,09,01,17.10
2007,08,15,09,02,17.10
2007,08,15,09,03,17.10
2007,08,15,09,04,17.10
2007,08,15,09,05,17.20
2007,08,15,09,06,17.20
2007,08,15,09,07,17.20
2007,08,15,09,08,17.30
2007,08,15,09,09,17.30
2007,08,15,09,10,17.30
2007,08,15,09,11,17.40
2007,08,15,09,12,17.40
2007,08,15,09,13,17.50
2007,08,15,09,14,17.50
2007,08,15,09,15,17.60
2007,08,15,09,16,17.60
2007,08,15,09,17,17.60
2007,08,15,09,18,17.60
2007,08,15,09,19,17.60
2007,08,15,09,20,17.70
2007,08,15,09,21,17.70
2007,08,15,09,22,17.70
2007,08,15,09,23,17.80
2007,08,15,09,24,17.80
2007,08,15,09,25,17.90
2007,08,15,09,26,17.90
2007,08,15,09,27,18.00
2007,08,15,09,28,18.10
2007,08,15,09,29,18.20
2007,08,15,09,30,18.30
2007,08,15,09,31,18.30
2007,08,15,09,32,18.40
2007,08,15,09,33,18.40
2007,08,15,09,34,18.50
2007,08,15,09,35,18.50
2007,08,15,09,36,18.60
2007,08,15,09,37,18.60
2007,08,15,09,38,18.70
2007,08,15,09,39,18.70
2007,08,15,09,40,18.70
2007,08,15,09,41,18.80
2007,08,15,09,42,18.80
2007,08,15,09,43,18.90
2007,08,15,09,44,19.00
2007,08,15,09,45,19.00
2007,08,15,09,46,19.10
2007,08,15,09,47,19.20
2007,08,15,09,48,19.30
2007,08,15,09,49,19.40
2007,08,15,09,50,19.40
2007,08,15,09,51,19.50
2007,08,15,09,52,19.60
2007,08,15,09,53,19.70
2007,08,15,09,54,19.80
2007,08,15,09,55,19.90
2007,08,15,09,56,20.00
2007,08,15,09,57,20.10
2007,08,15,09,58,20.20
2007,08,15,09,59,20.30
2007,08,15,10,00,20.40
2007,08,15,10,01,20.50
2007,08,15,10,02,20.60
2007,08,15,10,03,20.80
2007,08,15,10,04,20.90
2007,08,15,10,05,21.00
2007,08,15,10,06,21.10
2007,08,15,10,07,21.10
2007,08,15,10,08,21.20
2007,08,15,10,09,21.20
2007,08,15,10,10,21.30
2007,08,15,10,11,21.30
2007,08,15,10,12,21.40
2007,08,15,10,13,21.40
2007,08,15,10,14,21.50
2007,08,15,10,15,21.60
2007,08,15,10,16,21.60
2007,08,15,10,17,21.70
2007,08,15,10,18,21.70
2007,08,15,10,19,21.80
2007,08,15,10,20,21.80
2007,08,15,10,21,21.80
2007,08,15,10,22,21.90
2007,08,15,10,23,21.90
2007,08,15,10,24,21.90
2007,08,15,10,25,21.90
2007,08,15,10,26,21.90
2007,08,15,10,27,21.90
2007,08,15,10,28,21.90
2007,08,15,10,29,21.80
2007,08,15,10,30,21.80
2007,08,15,10,31,21.70
2007,08,15,10,32,21.60
2007,08,15,10,33,21.50
2007,08,15,10,34,21.30
2007,08,15,10,35,21.20
2007,08,15,10,36,21.20
2007,08,15,10,37,21.10
2007,08,15,10,38,21.10
2007,08,15,10,39,21.00
2007,08,15,10,40,20.90
2007,08,15,10,41,20.90
2007,08,15,10,42,20.80
2007,08,15,10,43,20.80
2007,08,15,10,44,20.70
2007,08,15,10,45,20.60
2007,08,15,10,46,20.50
2007,08,15,10,47,20.40
2007,08,15,10,48,20.40
2007,08,15,10,49,20.40
2007,08,15,10,50,20.30
2007,08,15,10,51,20.30
2007,08,15,10,52,20.30
2007,08,15,10,53,20.40
2007,08,15,10,54,20.40
2007,08,15,10,55,20.40
2007,08,15,10,56,20.40
2007,08,15,10,57,20.50
2007,08,15,10,58,20.60
2007,08,15,10,59,20.70
2007,08,15,11,00,20.80
2007,08,15,11,01,20.90
2007,08,15,11,02,20.90
2007,08,15,11,03,20.90
2007,08,15,11,04,21.00
2007,08,15,11,05,20.90
2007,08,15,11,06,20.90
2007,08,15,11,07,20.90
2007,08,15,11,08,20.90
2007,08,15,11,09,20.90
2007,08,15,11,10,20.90
2007,08,15,11,11,20.90
2007,08,15,11,12,20.90
2007,08,15,11,13,20.80
2007,08,15,11,14,20.80
2007,08,15,11,15,20.70
2007,08,15,11,16,20.60
2007,08,15,11,17,20.40
2007,08,15,11,18,20.40
2007,08,15,11,19,20.30
2007,08,15,11,20,20.40
2007,08,15,11,21,20.40
2007,08,15,11,22,20.40
2007,08,15,11,23,20.30
2007,08,15,11,24,20.30
2007,08,15,11,25,20.30
2007,08,15,11,26,20.20
2007,08,15,11,27,20.20
2007,08,15,11,28,20.10
2007,08,15,11,29,20.10
2007,08,15,11,30,20.10
2007,08,15,11,31,20.10
2007,08,15,11,32,20.20
2007,08,15,11,33,20.20
2007,08,15,11,34,20.20
2007,08,15,11,35,20.20
2007,08,15,11,36,20.30
2007,08,15,11,37,20.30
2007,08,15,11,38,20.30
2007,08,15,11,39,20.30
2007,08,15,11,40,20.30
2007,08,15,11,41,20.30
2007,08,15,11,42,20.30
2007,08,15,11,43,20.40
2007,08,15,11,44,20.40
2007,08,15,11,45,20.40
2007,08,15,11,46,20.40
2007,08,15,11,47,20.40
2007,08,15,11,48,20.30
2007,08,15,11,49,20.20
2007,08,15,11,50,20.20
2007,08,15,11,51,20.20
2007,08,15,11,52,20.20
2007,08,15,11,53,20.20
2007,08,15,11,54,20.20
2007,08,15,11,55,20.20
2007,08,15,11,56,20.20
2007,08,15,11,57,20.20
2007,08,15,11,58,20.20
2007,08,15,11,59,20.20
2007,08,15,12,00,20.20
2007,08,15,12,01,20.20
2007,08,15,12,02,20.30
2007,08,15,12,03,20.40
2007,08,15,12,04,20.40
2007,08,15,12,05,20.50
2007,08,15,12,06,20.70
2007,08,15,12,07,20.80
2007,08,15,12,08,20.90
2007,08,15,12,09,21.00
2007,08,15,12,10,21.10
2007,08,15,12,11,21.20
2007,08,15,12,12,21.30
2007,08,15,12,13,21.40
2007,08,15,12,14,21.40
2007,08,15,12,15,21.50
2007,08,15,12,16,21.50
2007,08,15,12,17,21.60
2007,08,15,12,18,21.60
2007,08,15,12,19,21.50
2007,08,15,12,20,21.40
2007,08,15,12,21,21.20
2007,08,15,12,22,21.20
2007,08,15,12,23,21.10
2007,08,15,12,24,21.00
2007,08,15,12,25,20.90
2007,08,15,12,26,20.80
2007,08,15,12,27,20.70
2007,08,15,12,28,20.60
2007,08,15,12,29,20.50
2007,08,15,12,30,20.50
2007,08,15,12,31,20.50
2007,08,15,12,32,20.60
2007,08,15,12,33,20.60
2007,08,15,12,34,20.70
2007,08,15,12,35,20.80
2007,08,15,12,36,20.80
2007,08,15,12,37,21.00
2007,08,15,12,38,21.00
2007,08,15,12,39,21.10
2007,08,15,12,40,21.10
2007,08,15,12,41,21.20
2007,08,15,12,42,21.20
2007,08,15,12,43,21.20
2007,08,15,12,44,21.30
2007,08,15,12,45,21.40
2007,08,15,12,46,21.60
2007,08,15,12,47,21.70
2007,08,15,12,48,21.90
2007,08,15,12,49,22.00
2007,08,15,12,50,22.00
2007,08,15,12,51,22.00
2007,08,15,12,52,22.00
2007,08,15,12,53,21.90
2007,08,15,12,54,22.00
2007,08,15,12,55,22.10
2007,08,15,12,56,22.20
2007,08,15,12,57,22.20
2007,08,15,12,58,22.30
2007,08,15,12,59,22.40
2007,08,15,13,00,22.50
2007,08,15,13,01,22.60
2007,08,15,13,02,22.70
2007,08,15,13,03,22.80
2007,08,15,13,04,22.90
2007,08,15,13,05,23.00
2007,08,15,13,06,23.20
2007,08,15,13,07,23.30
2007,08,15,13,08,23.40
2007,08,15,13,09,23.50
2007,08,15,13,10,23.60
2007,08,15,13,11,23.60
2007,08,15,13,12,23.60
2007,08,15,13,13,23.60
2007,08,15,13,14,23.60
2007,08,15,13,15,23.60
2007,08,15,13,16,23.70
2007,08,15,13,17,23.80
2007,08,15,13,18,23.80
2007,08,15,13,19,23.80
2007,08,15,13,20,23.80
2007,08,15,13,21,23.90
2007,08,15,13,22,23.90
2007,08,15,13,23,24.00
2007,08,15,13,24,24.10
2007,08,15,13,25,24.20
2007,08,15,13,26,24.30
2007,08,15,13,27,24.30
2007,08,15,13,28,24.40
2007,08,15,13,29,24.40
2007,08,15,13,30,24.40
2007,08,15,13,31,24.30
2007,08,15,13,32,24.20
2007,08,15,13,33,24.20
2007,08,15,13,34,24.20
2007,08,15,13,35,24.20
2007,08,15,13,36,24.20
2007,08,15,13,37,24.20
2007,08,15,13,38,24.20
2007,08,15,13,39,24.20
2007,08,15,13,40,24.20
2007,08,15,13,41,24.30
2007,08,15,13,42,24.30
2007,08,15,13,43,24.40
2007,08,15,13,44,24.30
2007,08,15,13,45,24.20
2007,08,15,13,46,24.10
2007,08,15,13,47,24.10
2007,08,15,13,48,24.10
2007,08,15,13,49,24.10
2007,08,15,13,50,24.10
2007,08,15,13,51,24.20
2007,08,15,13,52,24.20
2007,08,15,13,53,24.20
2007,08,15,13,54,24.10
2007,08,15,13,55,24.00
2007,08,15,13,56,23.90
2007,08,15,13,57,23.80
2007,08,15,13,58,23.70
2007,08,15,13,59,23.70
2007,08,15,14,00,23.60
2007,08,15,14,01,23.50
2007,08,15,14,02,23.40
2007,08,15,14,03,23.30
2007,08,15,14,04,23.20
2007,08,15,14,05,23.20
2007,08,15,14,06,23.20
2007,08,15,14,07,23.20
2007,08,15,14,08,23.30
2007,08,15,14,09,23.40
2007,08,15,14,10,23.60
2007,08,15,14,11,23.70
2007,08,15,14,12,23.80
2007,08,15,14,13,23.90
2007,08,15,14,14,24.00
2007,08,15,14,15,24.10
2007,08,15,14,16,24.10
2007,08,15,14,17,24.10
2007,08,15,14,18,24.20
2007,08,15,14,19,24.20
2007,08,15,14,20,24.20
2007,08,15,14,21,24.20
2007,08,15,14,22,24.20
2007,08,15,14,23,24.30
2007,08,15,14,24,24.40
2007,08,15,14,25,24.50
2007,08,15,14,26,24.50
2007,08,15,14,27,24.50
2007,08,15,14,28,24.50
2007,08,15,14,29,24.50
2007,08,15,14,30,24.50
2007,08,15,14,31,24.50
2007,08,15,14,32,24.60
2007,08,15,14,33,24.60
2007,08,15,14,34,24.70
2007,08,15,14,35,24.80
2007,08,15,14,36,24.90
2007,08,15,14,37,25.00
2007,08,15,14,38,25.00
2007,08,15,14,39,25.10
2007,08,15,14,40,25.10
2007,08,15,14,41,25.10
2007,08,15,14,42,25.10
2007,08,15,14,43,24.90
2007,08,15,14,44,24.80
2007,08,15,14,45,24.60
2007,08,15,14,46,24.40
2007,08,15,14,47,24.20
2007,08,15,14,48,24.00
2007,08,15,14,49,23.80
2007,08,15,14,50,23.70
2007,08,15,14,51,23.50
2007,08,15,14,52,23.40
2007,08,15,14,53,23.20
2007,08,15,14,54,23.10
2007,08,15,14,55,23.00
2007,08,15,14,56,22.80
2007,08,15,14,57,22.80
2007,08,15,14,58,22.70
2007,08,15,14,59,22.60
2007,08,15,15,00,22.60
2007,08,15,15,01,22.50
2007,08,15,15,02,22.40
2007,08,15,15,03,22.40
2007,08,15,15,04,22.40
2007,08,15,15,05,22.40
2007,08,15,15,06,22.50
2007,08,15,15,07,22.60
2007,08,15,15,08,22.70
2007,08,15,15,09,22.70
2007,08,15,15,10,22.80
2007,08,15,15,11,23.00
2007,08,15,15,12,23.10
2007,08,15,15,13,23.20
2007,08,15,15,14,23.30
2007,08,15,15,15,23.40
2007,08,15,15,16,23.50
2007,08,15,15,17,23.60
2007,08,15,15,18,23.70
2007,08,15,15,19,23.80
2007,08,15,15,20,24.00
2007,08,15,15,21,24.10
2007,08,15,15,22,24.20
2007,08,15,15,23,24.30
2007,08,15,15,24,24.40
2007,08,15,15,25,24.50
2007,08,15,15,26,24.50
2007,08,15,15,27,24.60
2007,08,15,15,28,24.70
2007,08,15,15,29,24.70
2007,08,15,15,30,24.70
2007,08,15,15,31,24.80
2007,08,15,15,32,24.80
2007,08,15,15,33,24.90
2007,08,15,15,34,24.90
2007,08,15,15,35,25.00
2007,08,15,15,36,25.00
2007,08,15,15,37,25.10
2007,08,15,15,38,25.10
2007,08,15,15,39,25.10
2007,08,15,15,40,25.10
2007,08,15,15,41,25.20
2007,08,15,15,42,25.20
2007,08,15,15,43,25.20
2007,08,15,15,44,25.20
2007,08,15,15,45,25.20
2007,08,15,15,46,25.20
2007,08,15,15,47,25.10
2007,08,15,15,48,25.10
2007,08,15,15,49,25.20
2007,08,15,15,50,25.20
2007,08,15,15,51,25.20
2007,08,15,15,52,25.20
2007,08,15,15,53,25.20
2007,08,15,15,54,25.20
2007,08,15,15,55,25.20
2007,08,15,15,56,25.20
2007,08,15,15,57,25.30
2007,08,15,15,58,25.30
2007,08,15,15,59,25.40
2007,08,15,16,00,25.40
2007,08,15,16,01,25.40
2007,08,15,16,02,25.40
2007,08,15,16,03,25.40
2007,08,15,16,04,25.40
2007,08,15,16,05,25.40
2007,08,15,16,06,25.40
2007,08,15,16,07,25.30
2007,08,15,16,08,25.20
2007,08,15,16,09,25.10
2007,08,15,16,10,25.00
2007,08,15,16,11,25.00
2007,08,15,16,12,25.00
2007,08,15,16,13,25.00
2007,08,15,16,14,24.90
2007,08,15,16,15,24.90
2007,08,15,16,16,24.90
2007,08,15,16,17,24.80
2007,08,15,16,18,24.80
2007,08,15,16,19,24.80
2007,08,15,16,20,24.80
2007,08,15,16,21,24.80
2007,08,15,16,22,24.80
2007,08,15,16,23,24.90
2007,08,15,16,24,24.90
2007,08,15,16,25,24.90
2007,08,15,16,26,24.90
2007,08,15,16,27,24.90
2007,08,15,16,28,24.90
2007,08,15,16,29,24.90
2007,08,15,16,30,25.00
2007,08,15,16,31,25.00
2007,08,15,16,32,25.10
2007,08,15,16,33,25.20
2007,08,15,16,34,25.30
2007,08,15,16,35,25.30
2007,08,15,16,36,25.30
2007,08,15,16,37,25.30
2007,08,15,16,38,25.30
2007,08,15,16,39,25.30
2007,08,15,16,40,25.40
2007,08,15,16,41,25.40
2007,08,15,16,42,25.50
2007,08,15,16,43,25.50
2007,08,15,16,44,25.50
2007,08,15,16,45,25.50
2007,08,15,16,46,25.50
2007,08,15,16,47,25.50
2007,08,15,16,48,25.50
2007,08,15,16,49,25.40
2007,08,15,16,50,25.40
2007,08,15,16,51,25.40
2007,08,15,16,52,25.40
2007,08,15,16,53,25.40
2007,08,15,16,54,25.30
2007,08,15,16,55,25.30
2007,08,15,16,56,25.30
2007,08,15,16,57,25.30
2007,08,15,16,58,25.30
2007,08,15,16,59,25.20
2007,08,15,17,00,25.00
2007,08,15,17,01,25.00
2007,08,15,17,02,25.00
2007,08,15,17,03,25.00
2007,08,15,17,04,25.10
2007,08,15,17,05,25.10
2007,08,15,17,06,25.10
2007,08,15,17,07,25.10
2007,08,15,17,08,25.10
2007,08,15,17,09,25.10
2007,08,15,17,10,25.00
2007,08,15,17,11,25.00
2007,08,15,17,12,24.90
2007,08,15,17,13,24.80
2007,08,15,17,14,24.80
2007,08,15,17,15,24.70
2007,08,15,17,16,24.60
2007,08,15,17,17,24.50
2007,08,15,17,18,24.50
2007,08,15,17,19,24.40